Tampa Macdill AFB, FL

10:56 AM EST on December 08, 2019 (GMT -0500)
MacDill Air Force Base

Weather History for KMCF - November, 2019

Change the Weather History Date:

Sunday, November 17, 2019

  Actual Average Record
Temperature  
Mean Temperature 52 °F -  
Max Temperature 55 °F 76 °F 86 °F (2013)
Min Temperature 50 °F 58 °F 40 °F (2008)
Degree Days  
Heating Degree Days 12    
Growing Degree Days 2 (Base 50)    
Moisture  
Dew Point 48 °F    
Average Humidity 84    
Maximum Humidity 94    
Minimum Humidity 80    
Precipitation  
Precipitation 0.00 in - - ()
Sea Level Pressure  
Sea Level Pressure 29.94 in    
Wind  
Wind Speed 6 mph (NE)    
Max Wind Speed 9 mph    
Max Gust Speed -    
Visibility 10 miles    
Events      
Averages and records for this station are not official NWS values.
T = Trace of Precipitation, MM = Missing Value Source: NWS Daily Summary

Daily Weather History Graph

Daily Weather History Graph

Search for Another Location

Airport or City:

Astronomy

Nov. 17, 2019 Rise Set
Actual Time 6:52 AM EST 5:36 PM EST
Civil Twilight 6:27 AM EST 6:01 PM EST
Nautical Twilight 5:59 AM EST 6:30 PM EST
Astronomical Twilight 5:31 AM EST 6:58 PM EST
Moon 10:18 PM EST (11/17) 11:30 AM EST (11/17)
Length of Visible Light 11h 33m
Length of Day
10h 44m
Waning Gibbous, 73% of the Moon is Illuminated
Nov 17
Waning Gibbous
Nov 19
Last Quarter
Nov 26
New
Dec 4
First Quarter
Dec 12
Full

Hourly Weather History & Observations

Time (EST) Temp. Dew Point Humidity Pressure Visibility Wind Dir Wind Speed Gust Speed Precip Events Conditions
12:11 AM 51.8 °F 46.4 °F 82% 29.96 in 10.0 mi NE 5.8 mph - N/A   Overcast
12:29 AM 51.8 °F 46.4 °F 82% 29.95 in 10.0 mi NNE 6.9 mph - N/A   Overcast
12:54 AM 51.8 °F 46.4 °F 82% 29.95 in 10.0 mi NE 5.8 mph - N/A   Overcast
12:56 AM 51.4 °F 46.8 °F 84% 29.95 in 10.0 mi NNE 4.6 mph - N/A   Overcast
1:06 AM 51.8 °F 46.4 °F 82% 29.95 in 10.0 mi NNE 5.8 mph - N/A   Overcast
1:14 AM 51.8 °F 46.4 °F 82% 29.94 in 10.0 mi NE 6.9 mph - N/A   Overcast
1:56 AM 51.3 °F 46.6 °F 84% 29.94 in 10.0 mi NNE 4.6 mph - N/A   Overcast
2:06 AM 51.8 °F 46.4 °F 82% 29.94 in 10.0 mi NE 5.8 mph - N/A   Overcast
2:31 AM 51.8 °F 46.4 °F 82% 29.94 in 10.0 mi NE 4.6 mph - N/A   Overcast
2:56 AM 51.3 °F 46.0 °F 82% 29.94 in 10.0 mi NE 6.9 mph - N/A   Overcast
3:44 AM 51.8 °F 46.4 °F 82% 29.94 in 10.0 mi NE 6.9 mph - N/A   Overcast
3:56 AM 50.9 °F 45.9 °F 83% 29.94 in 10.0 mi NNE 4.6 mph - N/A   Overcast
4:21 AM 50.0 °F 46.4 °F 87% 29.94 in 10.0 mi NE 8.1 mph - N/A   Overcast
4:56 AM 50.7 °F 46.4 °F 85% 29.95 in 10.0 mi NE 9.2 mph - N/A   Overcast
5:56 AM 50.5 °F 46.8 °F 87% 29.96 in 10.0 mi ENE 5.8 mph - N/A   Overcast
6:56 AM 50.4 °F 46.4 °F 86% 29.97 in 10.0 mi NE 6.9 mph - N/A   Overcast
7:51 AM 51.8 °F 46.4 °F 82% 29.99 in 10.0 mi NE 6.9 mph - N/A   Overcast
7:56 AM 50.9 °F 47.1 °F 87% 29.99 in 10.0 mi NE 5.8 mph - N/A   Overcast
8:16 AM 50.0 °F 48.2 °F 94% 30.00 in 10.0 mi NE 5.8 mph - N/A   Overcast
8:56 AM 51.1 °F 47.7 °F 88% 29.99 in 10.0 mi NE 5.8 mph - N/A   Overcast
9:21 AM 51.8 °F 48.2 °F 88% 29.99 in 10.0 mi NNE 4.6 mph - N/A   Overcast
9:56 AM 52.5 °F 47.8 °F 84% 29.99 in 10.0 mi ENE 5.8 mph - N/A   Overcast
10:56 AM 53.2 °F 47.8 °F 82% 29.99 in 10.0 mi NNE 3.5 mph - N/A   Overcast
11:56 AM 54.1 °F 48.0 °F 80% 29.96 in 10.0 mi NE 5.8 mph - N/A   Overcast
12:56 PM 54.7 °F 48.9 °F 81% 29.94 in 10.0 mi NNE 5.8 mph - N/A   Overcast
1:56 PM 55.4 °F 49.3 °F 80% 29.91 in 10.0 mi NNE 5.8 mph - N/A   Overcast
2:45 PM 55.4 °F 50.0 °F 82% 29.91 in 10.0 mi NNW 8.1 mph - N/A   Overcast
2:56 PM 55.8 °F 50.0 °F 81% 29.91 in 10.0 mi North 4.6 mph - N/A   Overcast
3:56 PM 55.4 °F 50.0 °F 82% 29.90 in 10.0 mi North 8.1 mph - N/A   Overcast
4:06 PM 55.4 °F 50.0 °F 82% 29.90 in 10.0 mi North 6.9 mph - N/A   Overcast
4:46 PM 55.4 °F 50.0 °F 82% 29.90 in 10.0 mi North 5.8 mph - N/A   Overcast
4:56 PM 54.7 °F 50.0 °F 84% 29.90 in 10.0 mi NNE 4.6 mph - N/A   Overcast
5:01 PM 55.4 °F 50.0 °F 82% 29.90 in 10.0 mi NNE 3.5 mph - N/A   Overcast
5:56 PM 54.1 °F 49.6 °F 85% 29.90 in 10.0 mi NE 3.5 mph - N/A   Overcast
6:56 PM 53.6 °F 49.3 °F 85% 29.92 in 10.0 mi NE 4.6 mph - N/A   Overcast
7:56 PM 53.4 °F 49.3 °F 86% 29.92 in 10.0 mi NNE 3.5 mph - N/A   Overcast
8:46 PM 53.6 °F 50.0 °F 88% 29.92 in 10.0 mi ENE 6.9 mph - N/A   Overcast
8:56 PM 53.1 °F 49.3 °F 87% 29.93 in 10.0 mi ENE 5.8 mph - N/A   Overcast
9:56 PM 52.9 °F 49.1 °F 87% 29.93 in 10.0 mi NNE 3.5 mph - N/A   Overcast
10:31 PM 53.6 °F 50.0 °F 88% 29.93 in 10.0 mi North 3.5 mph - N/A   Overcast
10:56 PM 53.4 °F 49.6 °F 87% 29.94 in 10.0 mi Calm Calm - N/A   Overcast
11:06 PM 53.6 °F 50.0 °F 88% 29.95 in 10.0 mi Calm Calm - N/A   Overcast
11:36 PM 53.6 °F 50.0 °F 88% 29.95 in 10.0 mi Calm Calm - N/A   Overcast
11:56 PM 53.2 °F 48.9 °F 85% 29.94 in 10.0 mi Calm Calm - N/A   Mostly Cloudy